Weather History for Beatrice, NE

Change the Weather History Date:

Wednesday, May 8, 2013

  Actual Average Record
Temperature  
Mean Temperature 66 °F -  
Max Temperature 74 °F 72 °F 92 °F (1963)
Min Temperature 57 °F 45 °F 31 °F (1980)
Growing Degree Days 16 (Base 50)    
Moisture  
Dew Point 54 °F    
Average Humidity 71    
Maximum Humidity 88    
Minimum Humidity 46    
Precipitation  
Precipitation 0.10 in - - ()
Sea Level Pressure  
Sea Level Pressure 29.93 in    
Wind  
Wind Speed 8 mph (SE)    
Max Wind Speed 13 mph    
Max Gust Speed 17 mph    
Visibility 10 miles    
Events Rain , Thunderstorm    
Averages and records for this station are not official NWS values.
T = Trace of Precipitation, MM = Missing Value Source: NWS Daily Summary

Daily Weather History Graph

Daily Weather History Graph

Search for Another Location

Airport:

Trip Planner

Search our weather history database for the weather conditions in past years. The results will help you decide how hot, cold, wet, or windy it might be!

Date:

Astronomy

May. 08, 2013 Rise Set
Actual Time 6:17 AM CDT 8:29 PM CDT
Civil Twilight 5:47 AM CDT 8:59 PM CDT
Nautical Twilight 5:10 AM CDT 9:37 PM CDT
Astronomical Twilight 4:30 AM CDT 10:17 PM CDT
Moon 5:26 AM CDT (5/8) 7:29 PM CDT (5/8)
Length of Visible Light 15h 12m
Length of Day
14h 11m
Waning Crescent, 2% of the Moon is Illuminated
May 8
Waning Crescent
May 9
New
May 17
First Quarter
May 24
Full
May 31
Last Quarter

Hourly Weather History & Observations

Time (CDT) Temp. Dew Point Humidity Pressure Visibility Wind Dir Wind Speed Gust Speed Precip Events Conditions
12:15 AM 63.1 °F 48.2 °F 58% 29.96 in 10.0 mi SSE 11.5 mph - N/A   Clear
12:35 AM 62.6 °F 48.2 °F 59% 29.96 in 10.0 mi SSE 10.4 mph - N/A   Scattered Clouds
12:55 AM 62.6 °F 48.4 °F 60% 29.97 in 10.0 mi SSE 8.1 mph - N/A   Mostly Cloudy
1:15 AM 62.4 °F 48.7 °F 61% 29.97 in 10.0 mi South 8.1 mph - N/A Rain Light Rain
1:35 AM 60.8 °F 51.1 °F 70% 29.97 in 10.0 mi South 8.1 mph - N/A Rain Light Rain
1:55 AM 59.9 °F 52.7 °F 77% 29.97 in 10.0 mi South 8.1 mph - 0.01 in Rain Rain
2:15 AM 58.6 °F 53.8 °F 84% 29.95 in 10.0 mi South 4.6 mph - N/A Rain Light Rain
2:35 AM 59.0 °F 54.0 °F 83% 29.95 in 10.0 mi SSE 3.5 mph - N/A   Overcast
2:55 AM 59.0 °F 53.6 °F 82% 29.95 in 10.0 mi SSE 4.6 mph - N/A Rain Light Rain
3:15 AM 58.6 °F 53.6 °F 83% 29.94 in 10.0 mi SSE 4.6 mph - N/A   Mostly Cloudy
3:35 AM 58.8 °F 53.2 °F 82% 29.93 in 10.0 mi SE 5.8 mph - N/A Rain Light Rain
3:55 AM 58.5 °F 53.2 °F 83% 29.93 in 10.0 mi SE 4.6 mph - N/A   Overcast
4:15 AM 58.1 °F 53.6 °F 85% 29.94 in 10.0 mi South 5.8 mph - N/A Rain Light Rain
4:35 AM 58.6 °F 53.1 °F 82% 29.93 in 10.0 mi South 9.2 mph - N/A Rain Light Rain
4:55 AM 58.5 °F 53.4 °F 83% 29.93 in 10.0 mi SSE 11.5 mph - 0.01 in   Drizzle
5:15 AM 58.1 °F 53.6 °F 85% 29.93 in 7.0 mi SSE 11.5 mph - 0.01 in Rain Light Rain
5:35 AM 58.1 °F 53.6 °F 85% 29.93 in 7.0 mi SSE 10.4 mph - 0.03 in Rain Light Rain
5:55 AM 58.1 °F 53.6 °F 85% 29.93 in 10.0 mi SSE 8.1 mph - 0.03 in Rain Light Rain
6:15 AM 57.7 °F 53.6 °F 86% 29.95 in 10.0 mi South 6.9 mph - N/A   Overcast
6:35 AM 57.6 °F 53.6 °F 87% 29.95 in 10.0 mi SSE 6.9 mph - N/A   Overcast
6:55 AM 57.6 °F 53.4 °F 86% 29.96 in 10.0 mi South 5.8 mph - N/A   Overcast
7:15 AM 58.1 °F 53.6 °F 85% 29.96 in 10.0 mi South 6.9 mph - N/A   Overcast
7:35 AM 58.1 °F 54.0 °F 86% 29.97 in 10.0 mi South 6.9 mph - N/A   Overcast
7:55 AM 58.1 °F 54.3 °F 87% 29.97 in 10.0 mi South 5.8 mph - N/A   Overcast
8:15 AM 58.1 °F 54.5 °F 88% 29.97 in 10.0 mi SSW 5.8 mph - N/A   Mostly Cloudy
8:35 AM 58.3 °F 54.9 °F 88% 29.97 in 5.0 mi South 4.6 mph - N/A   Drizzle
8:55 AM 59.0 °F 55.6 °F 88% 29.96 in 10.0 mi Calm Calm - 0.01 in   Scattered Clouds
9:15 AM 61.3 °F 56.5 °F 84% 29.96 in 10.0 mi South 5.8 mph - N/A   Mostly Cloudy
9:35 AM 62.6 °F 56.3 °F 80% 29.96 in 10.0 mi SSE 12.7 mph - N/A   Overcast
9:55 AM 62.2 °F 56.1 °F 80% 29.96 in 10.0 mi South 9.2 mph - N/A   Overcast
10:15 AM 62.6 °F 56.3 °F 80% 29.96 in 10.0 mi South 9.2 mph - N/A   Overcast
10:35 AM 62.6 °F 55.0 °F 76% 29.96 in 10.0 mi SSW 8.1 mph - N/A   Overcast
10:55 AM 62.8 °F 55.2 °F 76% 29.97 in 10.0 mi SSW 6.9 mph - N/A   Overcast
11:15 AM 61.9 °F 54.9 °F 78% 29.97 in 10.0 mi SSW 5.8 mph - N/A   Overcast
11:35 AM 62.2 °F 55.2 °F 78% 29.96 in 10.0 mi Calm Calm - N/A   Overcast
11:55 AM 63.9 °F 55.2 °F 73% 29.96 in 10.0 mi SE 4.6 mph - N/A   Overcast
12:15 PM 64.9 °F 55.4 °F 71% 29.96 in 10.0 mi SSE 4.6 mph - N/A   Overcast
12:35 PM 65.3 °F 55.4 °F 70% 29.96 in 10.0 mi SSE 6.9 mph - N/A   Overcast
12:55 PM 66.7 °F 56.3 °F 69% 29.96 in 10.0 mi ESE 4.6 mph - N/A   Overcast
1:15 PM 68.0 °F 56.3 °F 66% 29.95 in 10.0 mi SSE 4.6 mph - N/A   Scattered Clouds
1:35 PM 69.8 °F 56.3 °F 62% 29.95 in 10.0 mi ESE 5.8 mph - N/A   Scattered Clouds
1:55 PM 70.2 °F 56.7 °F 62% 29.94 in 10.0 mi NNE 3.5 mph - N/A   Mostly Cloudy
2:15 PM 71.2 °F 55.4 °F 57% 29.94 in 10.0 mi ESE 5.8 mph - N/A   Mostly Cloudy
2:35 PM 70.9 °F 54.7 °F 56% 29.93 in 10.0 mi East 6.9 mph - N/A   Mostly Cloudy
2:55 PM 73.2 °F 54.9 °F 52% 29.92 in 10.0 mi East 5.8 mph - N/A   Mostly Cloudy
3:35 PM 70.7 °F 54.7 °F 57% 29.91 in 10.0 mi NNE 9.2 mph - N/A   Overcast
3:55 PM 70.7 °F 54.0 °F 55% 29.91 in 10.0 mi ENE 8.1 mph - N/A   Overcast
4:15 PM 72.0 °F 54.5 °F 54% 29.90 in 10.0 mi ENE 11.5 mph - N/A   Overcast
4:35 PM 74.3 °F 54.5 °F 50% 29.89 in 10.0 mi East 10.4 mph 16.1 mph N/A   Mostly Cloudy
4:55 PM 71.6 °F 53.6 °F 53% 29.89 in 10.0 mi East 10.4 mph 17.3 mph N/A   Overcast
5:15 PM 73.2 °F 54.0 °F 51% 29.89 in 10.0 mi ENE 10.4 mph - N/A   Overcast
5:35 PM 73.6 °F 54.0 °F 50% 29.89 in 10.0 mi East 10.4 mph - N/A   Mostly Cloudy
5:55 PM 73.8 °F 53.4 °F 49% 29.88 in 10.0 mi ESE 9.2 mph - N/A   Scattered Clouds
6:15 PM 74.1 °F 52.3 °F 46% 29.87 in 10.0 mi ESE 11.5 mph - N/A   Clear
6:35 PM 72.7 °F 52.5 °F 49% 29.87 in 10.0 mi East 9.2 mph - N/A   Clear
6:55 PM 72.5 °F 53.1 °F 50% 29.86 in 10.0 mi ESE 8.1 mph - N/A   Mostly Cloudy
7:15 PM 71.4 °F 55.4 °F 57% 29.87 in 10.0 mi NNE 6.9 mph - N/A   Overcast
7:35 PM 72.0 °F 53.8 °F 53% 29.87 in 10.0 mi East 5.8 mph - N/A   Mostly Cloudy
7:55 PM 69.3 °F 55.9 °F 62% 29.88 in 10.0 mi NNE 10.4 mph - N/A   Mostly Cloudy
8:15 PM 68.0 °F 56.7 °F 67% 29.89 in 10.0 mi NNE 9.2 mph - N/A   Overcast
8:35 PM 67.1 °F 57.2 °F 70% 29.88 in 10.0 mi NE 9.2 mph - N/A   Overcast
8:55 PM 66.4 °F 57.2 °F 72% 29.87 in 10.0 mi NE 10.4 mph - N/A   Overcast
9:15 PM 65.5 °F 57.4 °F 75% 29.87 in 10.0 mi NE 6.9 mph - N/A   Mostly Cloudy
9:35 PM 65.5 °F 57.2 °F 75% 29.89 in 10.0 mi NE 8.1 mph - N/A   Overcast
10:15 PM 66.2 °F 56.5 °F 71% 29.89 in 10.0 mi NE 8.1 mph - N/A   Overcast
10:35 PM 65.1 °F 57.2 °F 75% 29.89 in 10.0 mi NE 6.9 mph - N/A Rain , Thunderstorm Light Thunderstorms and Rain
11:35 PM 62.6 °F 58.3 °F 86% 29.91 in 10.0 mi North 5.8 mph - N/A Rain Light Rain
11:55 PM 62.6 °F 58.1 °F 85% 29.90 in 5.0 mi NNE 3.5 mph - 0.04 in Rain Rain